| time (UTC) | temp F | wind direction | speed MPH | gust MPH | rain 1hr in | rain 24hr in | rain mn in | humidity % | barometer mb |
| 20260510230044 | 77 | 137 | 0.0 | 1.0 | 0.00 | 0.05 | 0.01 | 88 | 1012.8 |
| 20260510224548 | 78 | 141 | 0.0 | 4.0 | 0.00 | 0.05 | 0.01 | 87 | 1012.6 |
| 20260510223043 | 79 | 174 | 1.0 | 5.0 | 0.00 | 0.05 | 0.01 | 85 | 1012.3 |
| 20260510221542 | 79 | 95 | 0.0 | 7.0 | 0.00 | 0.05 | 0.01 | 86 | 1012.4 |
| 20260510220044 | 79 | 169 | 1.0 | 12.0 | 0.00 | 0.05 | 0.01 | 85 | 1012.7 |
| 20260510214543 | 78 | 202 | 2.0 | 9.0 | 0.00 | 0.05 | 0.01 | 86 | 1012.8 |
| 20260510213046 | 76 | 40 | 2.0 | 15.0 | 0.01 | 0.05 | 0.01 | 90 | 1012.8 |
| 20260510211541 | 76 | 199 | 2.0 | 17.0 | 0.01 | 0.05 | 0.01 | 92 | 1013.2 |
| 20260510210040 | 76 | 71 | 7.0 | 14.0 | 0.01 | 0.05 | 0.01 | 90 | 1012.8 |
| 20260510204538 | 77 | 16 | 8.0 | 16.0 | 0.01 | 0.05 | 0.01 | 90 | 1013.1 |
| 20260510203038 | 85 | 254 | 1.0 | 13.0 | 0.00 | 0.04 | 0.00 | 75 | 1012.8 |
| 20260510201539 | 92 | 131 | 2.0 | 7.0 | 0.00 | 0.04 | 0.00 | 70 | 1012.0 |
| 20260510200037 | 92 | 228 | 3.0 | 8.0 | 0.00 | 0.04 | 0.00 | 70 | 1012.3 |
| 20260510194537 | 90 | 112 | 1.0 | 7.0 | 0.00 | 0.04 | 0.00 | 73 | 1012.6 |
| 20260510193036 | 92 | 150 | 1.0 | 7.0 | 0.00 | 0.04 | 0.00 | 73 | 1012.7 |
| 20260510191539 | 92 | 11 | 1.0 | 5.0 | 0.00 | 0.04 | 0.00 | 73 | 1012.8 |
| 20260510190046 | 92 | 129 | 1.0 | 8.0 | 0.00 | 0.04 | 0.00 | 74 | 1013.0 |
| 20260510184541 | 93 | 285 | 3.0 | 8.0 | 0.00 | 0.04 | 0.00 | 68 | 1013.2 |
| 20260510183031 | 94 | 167 | 0.0 | 4.0 | 0.00 | 0.04 | 0.00 | 69 | 1013.4 |
| 20260510181535 | 94 | 121 | 1.0 | 6.0 | 0.00 | 0.04 | 0.00 | 61 | 1013.7 |
| 20260510180022 | 93 | 233 | 0.0 | 4.0 | 0.00 | 0.04 | 0.00 | 65 | 1013.7 |
| 20260510174520 | 93 | 269 | 0.0 | 6.0 | 0.00 | 0.04 | 0.00 | 65 | 1013.8 |
| 20260510173016 | 93 | 278 | 2.0 | 8.0 | 0.00 | 0.04 | 0.00 | 66 | 1014.0 |
| 20260510171513 | 92 | 205 | 0.0 | 4.0 | 0.00 | 0.04 | 0.00 | 69 | 1014.1 |
| 20260510170009 | 91 | 266 | 1.0 | 4.0 | 0.00 | 0.04 | 0.00 | 71 | 1014.2 |
| 20260510164505 | 91 | 283 | 2.0 | 6.0 | 0.00 | 0.04 | 0.00 | 71 | 1014.4 |
| 20260510163003 | 89 | 244 | 1.0 | 11.0 | 0.00 | 0.04 | 0.00 | 73 | 1014.6 |
| 20260510161505 | 89 | 225 | 1.0 | 6.0 | 0.00 | 0.04 | 0.00 | 73 | 1014.7 |
| 20260510160113 | 89 | 297 | 0.0 | 6.0 | 0.00 | 0.04 | 0.00 | 74 | 1014.6 |
| 20260510154621 | 89 | 162 | 0.0 | 4.0 | 0.00 | 0.04 | 0.00 | 74 | 1014.9 |
| 20260510153103 | 88 | 272 | 1.0 | 7.0 | 0.00 | 0.04 | 0.00 | 74 | 1015.0 |
| 20260510151552 | 88 | 233 | 1.0 | 6.0 | 0.00 | 0.04 | 0.00 | 75 | 1014.8 |
| 20260510150106 | 86 | 302 | 1.0 | 7.0 | 0.00 | 0.04 | 0.00 | 77 | 1014.7 |
| 20260510144608 | 86 | 293 | 0.0 | 5.0 | 0.00 | 0.04 | 0.00 | 76 | 1014.7 |
| 20260510143045 | 85 | 240 | 1.0 | 4.0 | 0.00 | 0.04 | 0.00 | 79 | 1014.6 |
| 20260510141546 | 84 | 171 | 1.0 | 4.0 | 0.00 | 0.04 | 0.00 | 81 | 1014.5 |
| 20260510140037 | 83 | 229 | 0.0 | 3.0 | 0.00 | 0.04 | 0.00 | 85 | 1014.4 |
| 20260510134534 | 81 | 288 | 0.0 | 3.0 | 0.00 | 0.04 | 0.00 | 88 | 1014.4 |
| 20260510133030 | 80 | 259 | 0.0 | 2.0 | 0.00 | 0.04 | 0.00 | 90 | 1014.5 |
| 20260510131527 | 79 | 217 | 0.0 | 1.0 | 0.00 | 0.04 | 0.00 | 93 | 1014.4 |
| 20260510130023 | 77 | 282 | 0.0 | 1.0 | 0.00 | 0.04 | 0.00 | 96 | 1014.3 |
| 20260510124521 | 76 | 212 | 0.0 | 1.0 | 0.00 | 0.04 | 0.00 | 97 | 1014.3 |
| 20260510123018 | 75 | 195 | 0.0 | 1.0 | 0.00 | 0.04 | 0.00 | 98 | 1013.7 |
| 20260510121514 | 74 | 141 | 0.0 | 2.0 | 0.00 | 0.04 | 0.00 | 98 | 1013.4 |
| 20260510120016 | 74 | 153 | 0.0 | 1.0 | 0.00 | 0.04 | 0.00 | 98 | 1013.3 |
| 20260510114512 | 73 | 116 | 0.0 | 1.0 | 0.00 | 0.04 | 0.00 | 98 | 1013.2 |
| 20260510113010 | 73 | 208 | 0.0 | 1.0 | 0.00 | 0.04 | 0.00 | 98 | 1013.0 |
| 20260510111509 | 73 | 209 | 0.0 | 0.0 | 0.00 | 0.04 | 0.00 | 98 | 1012.9 |
| 20260510110015 | 72 | 205 | 0.0 | 0.0 | 0.00 | 0.04 | 0.00 | 98 | 1012.7 |
| 20260510104507 | 72 | 202 | 0.0 | 1.0 | 0.00 | 0.04 | 0.00 | 97 | 1012.6 |
| 20260510103007 | 72 | 179 | 0.0 | 1.0 | 0.00 | 0.04 | 0.00 | 97 | 1012.4 |
| 20260510101506 | 73 | 147 | 0.0 | 0.0 | 0.00 | 0.04 | 0.00 | 97 | 1012.2 |
| 20260510100004 | 73 | 147 | 0.0 | 0.0 | 0.00 | 0.04 | 0.00 | 97 | 1012.2 |
| 20260510094505 | 73 | 147 | 0.0 | 1.0 | 0.00 | 0.04 | 0.00 | 97 | 1012.1 |
| 20260510093004 | 72 | 179 | 0.0 | 0.0 | 0.00 | 0.04 | 0.00 | 97 | 1012.0 |
| 20260510091503 | 73 | 179 | 0.0 | 0.0 | 0.00 | 0.04 | 0.00 | 97 | 1011.8 |
| 20260510090005 | 72 | 179 | 0.0 | 1.0 | 0.00 | 0.04 | 0.00 | 97 | 1011.8 |
| 20260510084503 | 73 | 21 | 0.0 | 0.0 | 0.00 | 0.04 | 0.00 | 97 | 1011.7 |
| 20260510083117 | 73 | 22 | 0.0 | 0.0 | 0.00 | 0.04 | 0.00 | 97 | 1011.6 |
| 20260510081615 | 73 | 22 | 0.0 | 0.0 | 0.00 | 0.04 | 0.00 | 97 | 1011.5 |
| 20260510080057 | 73 | 22 | 0.0 | 0.0 | 0.00 | 0.04 | 0.00 | 97 | 1011.4 |
| 20260510074558 | 74 | 22 | 0.0 | 0.0 | 0.00 | 0.04 | 0.00 | 97 | 1011.4 |
| 20260510073056 | 74 | 22 | 0.0 | 0.0 | 0.00 | 0.04 | 0.00 | 97 | 1011.5 |
| 20260510071555 | 73 | 22 | 0.0 | 0.0 | 0.00 | 0.04 | 0.00 | 97 | 1011.7 |
| 20260510070052 | 73 | 22 | 0.0 | 0.0 | 0.00 | 0.04 | 0.00 | 97 | 1011.8 |
| 20260510064551 | 73 | 23 | 0.0 | 0.0 | 0.00 | 0.04 | 0.00 | 97 | 1011.9 |
| 20260510063050 | 74 | 22 | 0.0 | 0.0 | 0.00 | 0.04 | 0.00 | 97 | 1011.9 |
| 20260510061556 | 73 | 22 | 0.0 | 0.0 | 0.00 | 0.04 | 0.00 | 96 | 1012.0 |
| 20260510060047 | 74 | 22 | 0.0 | 0.0 | 0.00 | 0.04 | 0.00 | 96 | 1012.1 |
| 20260510054543 | 74 | 22 | 0.0 | 0.0 | 0.00 | 0.04 | 0.00 | 96 | 1012.2 |
| 20260510053052 | 74 | 22 | 0.0 | 0.0 | 0.00 | 0.04 | 0.00 | 96 | 1012.4 |
| 20260510051543 | 74 | 22 | 0.0 | 0.0 | 0.00 | 0.04 | 0.00 | 96 | 1012.6 |
| 20260510050040 | 74 | 22 | 0.0 | 0.0 | 0.00 | 0.04 | 0.00 | 96 | 1012.7 |
| 20260510044539 | 74 | 22 | 0.0 | 0.0 | 0.00 | 0.04 | 0.00 | 95 | 1012.5 |
| 20260510043040 | 75 | 22 | 0.0 | 0.0 | 0.00 | 0.04 | 0.00 | 95 | 1012.6 |
| 20260510041538 | 75 | 22 | 0.0 | 0.0 | 0.00 | 0.04 | 0.00 | 95 | 1012.5 |
| 20260510040033 | 75 | 22 | 0.0 | 0.0 | 0.00 | 0.04 | 0.04 | 95 | 1012.7 |
| 20260510034534 | 75 | 22 | 0.0 | 1.0 | 0.00 | 0.04 | 0.04 | 95 | 1012.7 |
| 20260510033033 | 75 | 22 | 0.0 | 0.0 | 0.00 | 0.04 | 0.04 | 95 | 1012.7 |
| 20260510031533 | 75 | 22 | 0.0 | 1.0 | 0.00 | 0.04 | 0.04 | 94 | 1012.6 |
| 20260510030034 | 75 | 22 | 0.0 | 1.0 | 0.01 | 0.04 | 0.04 | 94 | 1012.3 |
| 20260510024534 | 75 | 22 | 0.0 | 1.0 | 0.01 | 0.04 | 0.04 | 94 | 1012.2 |
| 20260510023028 | 75 | 22 | 0.0 | 1.0 | 0.01 | 0.04 | 0.04 | 94 | 1011.9 |
| 20260510021534 | 75 | 17 | 0.0 | 2.0 | 0.01 | 0.04 | 0.04 | 94 | 1011.7 |
| 20260510020027 | 76 | 17 | 0.0 | 1.0 | 0.03 | 0.03 | 0.03 | 94 | 1011.9 |
| 20260510014527 | 76 | 17 | 0.0 | 3.0 | 0.03 | 0.03 | 0.03 | 93 | 1011.8 |
| 20260510013026 | 77 | 18 | 0.0 | 1.0 | 0.03 | 0.03 | 0.03 | 91 | 1011.6 |
| 20260510011526 | 79 | 312 | 0.0 | 1.0 | 0.03 | 0.03 | 0.03 | 89 | 1011.7 |
| 20260510010025 | 79 | 294 | 0.0 | 2.0 | 0.00 | 0.00 | 0.00 | 87 | 1011.5 |
| 20260510004525 | 80 | 329 | 2.0 | 6.0 | 0.00 | 0.00 | 0.00 | 84 | 1010.8 |
| 20260510003030 | 84 | 357 | 3.0 | 9.0 | 0.00 | 0.00 | 0.00 | 76 | 1010.4 |
| 20260510001524 | 83 | 292 | 1.0 | 4.0 | 0.00 | 0.00 | 0.00 | 84 | 1010.2 |
| 20260510000024 | 83 | 159 | 0.0 | 4.0 | 0.00 | 0.00 | 0.00 | 83 | 1009.5 |
| 20260509234534 | 84 | 122 | 0.0 | 3.0 | 0.00 | 0.00 | 0.00 | 83 | 1009.2 |
| 20260509233022 | 84 | 134 | 1.0 | 5.0 | 0.00 | 0.00 | 0.00 | 82 | 1009.1 |
| 20260509231522 | 85 | 157 | 0.0 | 4.0 | 0.00 | 0.00 | 0.00 | 80 | 1008.9 |